When you browse on this site, cookies collect data to enhance your experience and personalize the content and advertising you see.
Visit our Privacy Policy to learn more. By continuing to use the site, you agree to this use of cookies and data.
  • In United Kingdom
  • List of Countries
  • For 7 days
  • Water Temperature
  • Satellite Maps
  • Weather Map
  • Weather Widgets
  • user-avatar
    Login

    Hourly Weather Vasyl'kivtsi

    Today, 21 April, Sunday

    Time Temperature Precipitation Wind Pressure Humidity
    00:00 +8°C° 0 mm 2 mps 746 mmHg 64%
    01:00 +7°C° 0 mm 2 mps 746 mmHg 66%
    02:00 +7°C° 0 mm 2 mps 746 mmHg 68%
    03:00 +6°C° 0 mm 2 mps 745 mmHg 72%
    04:00 +6°C° 0 mm 2 mps 745 mmHg 75%
    05:00 +5°C° 0 mm 2 mps 745 mmHg 79%
    06:00 +7°C° 0 mm 2 mps 745 mmHg 76%
    07:00 +8°C° 0 mm 2 mps 745 mmHg 72%
    08:00 +9°C° 0 mm 3 mps 745 mmHg 69%
    09:00 +11°C° 0 mm 3 mps 745 mmHg 62%
    10:00 +12°C° 0 mm 4 mps 745 mmHg 56%
    11:00 +13°C° 0 mm 4 mps 745 mmHg 50%
    12:00 +13°C° 0.1 mm 4 mps 745 mmHg 50%
    13:00 +13°C° 0.1 mm 5 mps 745 mmHg 50%
    14:00 +14°C° 0.1 mm 5 mps 745 mmHg 50%
    15:00 +13°C° 0.1 mm 5 mps 745 mmHg 51%
    16:00 +13°C° 0.1 mm 5 mps 744 mmHg 53%
    17:00 +13°C° 0.1 mm 5 mps 744 mmHg 54%
    18:00 +12°C° 0 mm 4 mps 744 mmHg 58%
    19:00 +10°C° 0 mm 4 mps 745 mmHg 63%
    20:00 +9°C° 0 mm 3 mps 745 mmHg 67%
    21:00 +9°C° 0 mm 3 mps 745 mmHg 68%
    22:00 +8°C° 0 mm 3 mps 745 mmHg 69%
    23:00 +7°C° 0 mm 3 mps 745 mmHg 70%

    Tomorrow, 22 April, Monday

    Time Temperature Precipitation Wind Pressure Humidity
    00:00 +7°C° 0 mm 3 mps 746 mmHg 69%
    01:00 +7°C° 0 mm 3 mps 746 mmHg 69%
    02:00 +5°C° 0 mm 3 mps 746 mmHg 68%
    03:00 +5°C° 0 mm 3 mps 746 mmHg 69%
    04:00 +4°C° 0 mm 3 mps 746 mmHg 71%
    05:00 +5°C° 0 mm 2 mps 746 mmHg 72%
    06:00 +7°C° 0 mm 3 mps 747 mmHg 67%
    07:00 +8°C° 0 mm 3 mps 747 mmHg 61%
    08:00 +10°C° 0 mm 4 mps 748 mmHg 56%
    09:00 +10°C° 0 mm 5 mps 748 mmHg 50%
    10:00 +12°C° 0 mm 5 mps 748 mmHg 44%
    11:00 +13°C° 0 mm 6 mps 748 mmHg 39%
    12:00 +13°C° 0 mm 5 mps 749 mmHg 40%
    13:00 +13°C° 0 mm 5 mps 749 mmHg 41%
    14:00 +13°C° 0 mm 5 mps 749 mmHg 42%
    15:00 +13°C° 0 mm 5 mps 749 mmHg 44%
    16:00 +13°C° 0 mm 4 mps 749 mmHg 46%
    17:00 +13°C° 0 mm 4 mps 749 mmHg 47%
    18:00 +11°C° 0 mm 4 mps 749 mmHg 53%
    19:00 +10°C° 0 mm 3 mps 749 mmHg 58%
    20:00 +9°C° 0 mm 3 mps 749 mmHg 63%
    21:00 +8°C° 0 mm 3 mps 749 mmHg 64%
    22:00 +7°C° 0 mm 3 mps 749 mmHg 65%
    23:00 +7°C° 0 mm 3 mps 750 mmHg 65%

    Day after tomorrow, 23 April, Tuesday

    Time Temperature Precipitation Wind Pressure Humidity
    00:00 +7°C° 0 mm 3 mps 750 mmHg 65%
    01:00 +7°C° 0 mm 3 mps 750 mmHg 65%
    02:00 +7°C° 0 mm 3 mps 750 mmHg 65%
    03:00 +7°C° 0 mm 3 mps 750 mmHg 65%
    04:00 +5°C° 0 mm 3 mps 750 mmHg 65%
    05:00 +5°C° 0 mm 3 mps 750 mmHg 66%
    06:00 +8°C° 0 mm 3 mps 750 mmHg 62%
    07:00 +8°C° 0 mm 4 mps 751 mmHg 58%
    08:00 +11°C° 0 mm 4 mps 751 mmHg 54%
    09:00 +12°C° 0 mm 5 mps 751 mmHg 50%
    10:00 +13°C° 0 mm 5 mps 751 mmHg 46%
    11:00 +14°C° 0 mm 5 mps 751 mmHg 41%
    12:00 +15°C° 0 mm 5 mps 751 mmHg 41%
    13:00 +15°C° 0 mm 6 mps 751 mmHg 42%
    14:00 +15°C° 0 mm 6 mps 751 mmHg 42%
    15:00 +15°C° 0 mm 5 mps 750 mmHg 43%
    16:00 +15°C° 0 mm 5 mps 750 mmHg 45%
    17:00 +14°C° 0 mm 5 mps 750 mmHg 46%
    18:00 +13°C° 0 mm 5 mps 750 mmHg 51%
    19:00 +12°C° 0 mm 4 mps 750 mmHg 56%
    20:00 +10°C° 0 mm 4 mps 750 mmHg 61%
    21:00 +10°C° 0 mm 4 mps 750 mmHg 62%
    22:00 +8°C° 0 mm 4 mps 750 mmHg 63%
    23:00 +7°C° 0 mm 4 mps 750 mmHg 64%

    24 April, Wednesday

    Time Temperature Precipitation Wind Pressure Humidity
    00:00 +7°C° 0 mm 4 mps 751 mmHg 66%
    01:00 +7°C° 0 mm 3 mps 751 mmHg 68%
    02:00 +7°C° 0 mm 3 mps 751 mmHg 70%
    03:00 +5°C° 0 mm 3 mps 751 mmHg 71%
    04:00 +5°C° 0 mm 3 mps 751 mmHg 71%
    05:00 +5°C° 0 mm 3 mps 751 mmHg 72%
    06:00 +7°C° 0 mm 4 mps 751 mmHg 66%
    07:00 +10°C° 0 mm 4 mps 751 mmHg 61%
    08:00 +10°C° 0 mm 5 mps 751 mmHg 55%
    09:00 +13°C° 0 mm 5 mps 751 mmHg 52%
    10:00 +14°C° 0 mm 6 mps 751 mmHg 48%
    11:00 +15°C° 0 mm 6 mps 752 mmHg 45%
    12:00 +16°C° 0 mm 6 mps 751 mmHg 44%
    13:00 +16°C° 0 mm 6 mps 751 mmHg 44%
    14:00 +17°C° 0 mm 6 mps 751 mmHg 43%
    15:00 +16°C° 0 mm 5 mps 750 mmHg 45%
    16:00 +16°C° 0 mm 5 mps 750 mmHg 46%
    17:00 +16°C° 0 mm 5 mps 750 mmHg 47%
    18:00 +14°C° 0 mm 4 mps 750 mmHg 52%
    19:00 +13°C° 0 mm 4 mps 750 mmHg 58%
    20:00 +11°C° 0 mm 3 mps 750 mmHg 63%
    21:00 +10°C° 0 mm 3 mps 750 mmHg 63%
    22:00 +10°C° 0 mm 3 mps 750 mmHg 64%
    23:00 +9°C° 0 mm 3 mps 750 mmHg 65%

    25 April, Thursday

    Time Temperature Precipitation Wind Pressure Humidity
    00:00 +9°C° 0 mm 3 mps 750 mmHg 63%
    01:00 +8°C° 0 mm 3 mps 750 mmHg 62%
    02:00 +8°C° 0 mm 3 mps 750 mmHg 61%
    03:00 +7°C° 0 mm 3 mps 750 mmHg 62%
    04:00 +7°C° 0 mm 3 mps 750 mmHg 64%
    05:00 +5°C° 0 mm 3 mps 750 mmHg 65%
    06:00 +7°C° 0 mm 4 mps 750 mmHg 61%
    07:00 +10°C° 0 mm 4 mps 751 mmHg 58%
    08:00 +12°C° 0 mm 5 mps 751 mmHg 54%
    09:00 +13°C° 0 mm 5 mps 751 mmHg 50%
    10:00 +15°C° 0 mm 6 mps 751 mmHg 45%
    11:00 +16°C° 0 mm 6 mps 751 mmHg 41%
    12:00 +17°C° 0 mm 6 mps 750 mmHg 41%
    13:00 +17°C° 0 mm 6 mps 750 mmHg 41%
    14:00 +19°C° 0 mm 6 mps 750 mmHg 41%
    15:00 +19°C° 0 mm 5 mps 749 mmHg 43%
    16:00 +17°C° 0 mm 5 mps 749 mmHg 46%
    17:00 +18°C° 0 mm 4 mps 748 mmHg 49%
    18:00 +17°C° 0 mm 4 mps 748 mmHg 53%
    19:00 +14°C° 0 mm 4 mps 748 mmHg 57%
    20:00 +12°C° 0 mm 3 mps 748 mmHg 62%
    21:00 +12°C° 0 mm 3 mps 748 mmHg 63%
    22:00 +11°C° 0 mm 3 mps 747 mmHg 65%
    23:00 +11°C° 0 mm 3 mps 747 mmHg 67%

    26 April, Friday

    Time Temperature Precipitation Wind Pressure Humidity
    00:00 +10°C° 0 mm 3 mps 747 mmHg 67%
    01:00 +9°C° 0 mm 3 mps 747 mmHg 68%
    02:00 +9°C° 0 mm 3 mps 747 mmHg 69%
    03:00 +8°C° 0 mm 3 mps 747 mmHg 69%
    04:00 +8°C° 0 mm 3 mps 746 mmHg 69%
    05:00 +7°C° 0 mm 3 mps 746 mmHg 69%
    06:00 +8°C° 0 mm 4 mps 746 mmHg 62%
    07:00 +10°C° 0 mm 5 mps 746 mmHg 56%
    08:00 +11°C° 0 mm 6 mps 746 mmHg 50%
    09:00 +14°C° 0 mm 6 mps 746 mmHg 48%
    10:00 +16°C° 0 mm 7 mps 746 mmHg 47%
    11:00 +18°C° 0 mm 7 mps 746 mmHg 45%
    12:00 +18°C° 0 mm 7 mps 745 mmHg 45%
    13:00 +20°C° 0 mm 7 mps 745 mmHg 45%
    14:00 +20°C° 0 mm 7 mps 744 mmHg 45%
    15:00 +20°C° 0 mm 6 mps 744 mmHg 47%
    16:00 +20°C° 0 mm 6 mps 744 mmHg 49%
    17:00 +20°C° 0 mm 5 mps 743 mmHg 51%
    18:00 +17°C° 0 mm 5 mps 743 mmHg 57%
    19:00 +15°C° 0 mm 4 mps 743 mmHg 63%
    20:00 +14°C° 0 mm 3 mps 743 mmHg 69%
    21:00 +13°C° 0 mm 3 mps 743 mmHg 71%
    22:00 +13°C° 0 mm 4 mps 743 mmHg 72%
    23:00 +12°C° 0 mm 4 mps 742 mmHg 74%
    Show more